Year,Month,Day,Hour,Minute,Value (Times are PST for temperature in C)
2022,04,17,00,00,4.90
2022,04,17,00,01,4.80
2022,04,17,00,02,4.90
2022,04,17,00,03,4.90
2022,04,17,00,04,4.90
2022,04,17,00,05,4.90
2022,04,17,00,06,4.90
2022,04,17,00,07,4.90
2022,04,17,00,08,4.90
2022,04,17,00,09,4.80
2022,04,17,00,10,4.80
2022,04,17,00,11,4.80
2022,04,17,00,12,4.80
2022,04,17,00,13,4.80
2022,04,17,00,14,4.80
2022,04,17,00,15,4.80
2022,04,17,00,16,4.80
2022,04,17,00,17,4.80
2022,04,17,00,18,4.80
2022,04,17,00,19,4.70
2022,04,17,00,20,4.70
2022,04,17,00,21,4.70
2022,04,17,00,22,4.70
2022,04,17,00,23,4.70
2022,04,17,00,24,4.60
2022,04,17,00,25,4.60
2022,04,17,00,26,4.60
2022,04,17,00,27,4.60
2022,04,17,00,28,4.50
2022,04,17,00,29,4.50
2022,04,17,00,30,4.50
2022,04,17,00,31,4.50
2022,04,17,00,32,4.40
2022,04,17,00,33,4.40
2022,04,17,00,34,4.40
2022,04,17,00,35,4.40
2022,04,17,00,36,4.30
2022,04,17,00,37,4.30
2022,04,17,00,38,4.30
2022,04,17,00,39,4.30
2022,04,17,00,40,4.30
2022,04,17,00,41,4.30
2022,04,17,00,42,4.30
2022,04,17,00,43,4.20
2022,04,17,00,44,4.20
2022,04,17,00,45,4.30
2022,04,17,00,46,4.30
2022,04,17,00,47,4.30
2022,04,17,00,48,4.40
2022,04,17,00,49,4.40
2022,04,17,00,50,4.40
2022,04,17,00,51,4.40
2022,04,17,00,52,4.40
2022,04,17,00,53,4.40
2022,04,17,00,54,4.40
2022,04,17,00,55,4.40
2022,04,17,00,56,4.40
2022,04,17,00,57,4.40
2022,04,17,00,58,4.40
2022,04,17,00,59,4.40
2022,04,17,01,00,4.40
2022,04,17,01,01,4.40
2022,04,17,01,02,4.40
2022,04,17,01,03,4.40
2022,04,17,01,04,4.40
2022,04,17,01,05,4.40
2022,04,17,01,06,4.40
2022,04,17,01,07,4.40
2022,04,17,01,08,4.30
2022,04,17,01,09,4.40
2022,04,17,01,10,4.40
2022,04,17,01,11,4.40
2022,04,17,01,12,4.40
2022,04,17,01,13,4.40
2022,04,17,01,14,4.40
2022,04,17,01,15,4.40
2022,04,17,01,16,4.40
2022,04,17,01,17,4.30
2022,04,17,01,18,4.20
2022,04,17,01,19,4.10
2022,04,17,01,20,4.00
2022,04,17,01,21,4.00
2022,04,17,01,22,3.90
2022,04,17,01,23,3.80
2022,04,17,01,24,3.70
2022,04,17,01,25,3.70
2022,04,17,01,26,3.60
2022,04,17,01,27,3.60
2022,04,17,01,28,3.60
2022,04,17,01,29,3.60
2022,04,17,01,30,3.60
2022,04,17,01,31,3.50
2022,04,17,01,32,3.50
2022,04,17,01,33,3.50
2022,04,17,01,34,3.40
2022,04,17,01,35,3.40
2022,04,17,01,36,3.40
2022,04,17,01,37,3.30
2022,04,17,01,38,3.30
2022,04,17,01,39,3.20
2022,04,17,01,40,3.20
2022,04,17,01,41,3.10
2022,04,17,01,42,3.10
2022,04,17,01,43,3.00
2022,04,17,01,44,3.00
2022,04,17,01,45,2.90
2022,04,17,01,46,2.90
2022,04,17,01,47,2.90
2022,04,17,01,48,2.90
2022,04,17,01,49,2.90
2022,04,17,01,50,2.80
2022,04,17,01,51,2.80
2022,04,17,01,52,2.80
2022,04,17,01,53,2.80
2022,04,17,01,54,2.70
2022,04,17,01,55,2.70
2022,04,17,01,56,2.70
2022,04,17,01,57,2.70
2022,04,17,01,58,2.70
2022,04,17,01,59,2.70
2022,04,17,02,00,2.60
2022,04,17,02,01,2.60
2022,04,17,02,02,2.60
2022,04,17,02,03,2.60
2022,04,17,02,04,2.50
2022,04,17,02,05,2.50
2022,04,17,02,06,2.40
2022,04,17,02,07,2.40
2022,04,17,02,08,2.40
2022,04,17,02,09,2.40
2022,04,17,02,10,2.30
2022,04,17,02,11,2.30
2022,04,17,02,12,2.30
2022,04,17,02,13,2.30
2022,04,17,02,14,2.20
2022,04,17,02,15,2.20
2022,04,17,02,16,2.20
2022,04,17,02,17,2.20
2022,04,17,02,18,2.20
2022,04,17,02,19,2.20
2022,04,17,02,20,2.10
2022,04,17,02,21,2.10
2022,04,17,02,22,2.10
2022,04,17,02,23,2.10
2022,04,17,02,24,2.00
2022,04,17,02,25,2.00
2022,04,17,02,26,2.00
2022,04,17,02,27,2.00
2022,04,17,02,28,2.00
2022,04,17,02,29,2.00
2022,04,17,02,30,2.00
2022,04,17,02,31,2.00
2022,04,17,02,32,2.00
2022,04,17,02,33,2.00
2022,04,17,02,34,2.00
2022,04,17,02,35,1.90
2022,04,17,02,36,1.90
2022,04,17,02,37,1.90
2022,04,17,02,38,1.90
2022,04,17,02,39,1.90
2022,04,17,02,40,1.90
2022,04,17,02,41,1.90
2022,04,17,02,42,1.90
2022,04,17,02,43,1.90
2022,04,17,02,44,1.90
2022,04,17,02,45,1.90
2022,04,17,02,46,1.90
2022,04,17,02,47,1.90
2022,04,17,02,48,1.90
2022,04,17,02,49,1.90
2022,04,17,02,50,1.90
2022,04,17,02,51,1.90
2022,04,17,07,22,0.10
2022,04,17,07,23,0.10
2022,04,17,07,24,0.20
2022,04,17,07,25,0.20
2022,04,17,07,26,0.30
2022,04,17,07,27,0.40
2022,04,17,07,28,0.40
2022,04,17,07,29,0.50
2022,04,17,07,30,0.50
2022,04,17,07,31,0.50
2022,04,17,07,32,0.60
2022,04,17,07,33,0.60
2022,04,17,07,34,0.70
2022,04,17,07,35,0.70
2022,04,17,07,36,0.70
2022,04,17,07,37,0.80
2022,04,17,07,38,0.90
2022,04,17,07,39,1.00
2022,04,17,07,40,1.20
2022,04,17,07,41,1.30
2022,04,17,07,42,1.40
2022,04,17,07,43,1.50
2022,04,17,07,44,1.60
2022,04,17,07,45,1.80
2022,04,17,07,46,1.80
2022,04,17,07,47,1.80
2022,04,17,07,48,1.90
2022,04,17,07,49,2.00
2022,04,17,07,50,2.10
2022,04,17,07,51,2.20
2022,04,17,07,52,2.30
2022,04,17,07,53,2.30
2022,04,17,07,54,2.30
2022,04,17,07,55,2.40
2022,04,17,07,56,2.40
2022,04,17,07,57,2.50
2022,04,17,07,58,2.50
2022,04,17,07,59,2.50
2022,04,17,08,00,2.40
2022,04,17,08,01,2.40
2022,04,17,08,02,2.40
2022,04,17,08,03,2.40
2022,04,17,08,04,2.40
2022,04,17,08,05,2.40
2022,04,17,08,06,2.40
2022,04,17,08,07,2.50
2022,04,17,08,08,2.60
2022,04,17,08,09,2.60
2022,04,17,08,10,2.70
2022,04,17,08,11,2.80
2022,04,17,08,12,3.00
2022,04,17,08,13,3.10
2022,04,17,08,14,3.20
2022,04,17,08,15,3.20
2022,04,17,08,16,3.30
2022,04,17,08,17,3.30
2022,04,17,08,18,3.30
2022,04,17,08,19,3.40
2022,04,17,08,20,3.50
2022,04,17,08,21,3.60
2022,04,17,08,22,3.60
2022,04,17,08,23,3.70
2022,04,17,08,24,3.80
2022,04,17,08,25,3.80
2022,04,17,08,26,3.80
2022,04,17,08,27,3.90
2022,04,17,08,28,3.90
2022,04,17,08,29,4.00
2022,04,17,08,30,4.00
2022,04,17,08,31,4.10
2022,04,17,08,32,4.20
2022,04,17,08,33,4.30
2022,04,17,08,34,4.30
2022,04,17,08,35,4.40
2022,04,17,08,36,4.50
2022,04,17,08,37,4.50
2022,04,17,08,38,4.60
2022,04,17,08,39,4.60
2022,04,17,08,40,4.70
2022,04,17,08,41,4.70
2022,04,17,08,42,4.80
2022,04,17,08,43,4.80
2022,04,17,08,44,4.90
2022,04,17,08,45,5.00
2022,04,17,08,46,5.10
2022,04,17,08,47,5.20
2022,04,17,08,48,5.30
2022,04,17,08,49,5.40
2022,04,17,08,50,5.50
2022,04,17,08,51,5.50
2022,04,17,08,52,5.60
2022,04,17,08,53,5.70
2022,04,17,08,54,5.70
2022,04,17,08,55,5.80
2022,04,17,08,56,5.90
2022,04,17,08,57,5.90
2022,04,17,08,58,5.90
2022,04,17,08,59,5.90
2022,04,17,09,00,6.00
2022,04,17,09,01,6.00
2022,04,17,09,02,6.00
2022,04,17,09,03,6.10
2022,04,17,09,04,6.10
2022,04,17,09,05,6.10
2022,04,17,09,06,6.10
2022,04,17,09,07,6.10
2022,04,17,09,08,6.20
2022,04,17,09,09,6.20
2022,04,17,09,10,6.30
2022,04,17,09,11,6.30
2022,04,17,09,12,6.30
2022,04,17,09,13,6.30
2022,04,17,09,14,6.40
2022,04,17,09,15,6.40
2022,04,17,09,16,6.40
2022,04,17,09,17,6.40
2022,04,17,09,18,6.40
2022,04,17,09,19,6.50
2022,04,17,09,20,6.60
2022,04,17,09,21,6.50
2022,04,17,09,22,6.50
2022,04,17,09,23,6.50
2022,04,17,09,24,6.40
2022,04,17,09,25,6.40
2022,04,17,09,26,6.40
2022,04,17,09,27,6.40
2022,04,17,09,28,6.30
2022,04,17,09,29,6.30
2022,04,17,09,30,6.30
2022,04,17,09,31,6.30
2022,04,17,09,32,6.30
2022,04,17,09,33,6.30
2022,04,17,09,34,6.30
2022,04,17,09,35,6.30
2022,04,17,09,36,6.30
2022,04,17,09,37,6.30
2022,04,17,09,38,6.30
2022,04,17,09,39,6.30
2022,04,17,09,40,6.30
2022,04,17,09,41,6.30
2022,04,17,09,42,6.40
2022,04,17,09,43,6.40
2022,04,17,09,44,6.40
2022,04,17,09,45,6.50
2022,04,17,09,46,6.60
2022,04,17,09,47,6.60
2022,04,17,09,48,6.60
2022,04,17,09,49,6.50
2022,04,17,09,50,6.50
2022,04,17,09,51,6.60
2022,04,17,09,52,6.60
2022,04,17,09,53,6.60
2022,04,17,09,54,6.60
2022,04,17,09,55,6.60
2022,04,17,09,56,6.70
2022,04,17,09,57,6.70
2022,04,17,09,58,6.70
2022,04,17,09,59,6.70
2022,04,17,10,00,6.70
2022,04,17,10,01,6.60
2022,04,17,10,02,6.60
2022,04,17,10,03,6.60
2022,04,17,10,04,6.60
2022,04,17,10,05,6.60
2022,04,17,10,06,6.70
2022,04,17,10,07,6.90
2022,04,17,10,08,7.00
2022,04,17,10,09,7.20
2022,04,17,10,10,7.40
2022,04,17,10,11,7.60
2022,04,17,10,12,7.70
2022,04,17,10,13,7.70
2022,04,17,10,14,7.50
2022,04,17,10,15,7.40
2022,04,17,10,16,7.40
2022,04,17,10,17,7.50
2022,04,17,10,18,7.60
2022,04,17,10,19,7.70
2022,04,17,10,20,7.70
2022,04,17,10,21,7.70
2022,04,17,10,22,7.60
2022,04,17,10,23,7.60
2022,04,17,10,24,7.60
2022,04,17,10,25,7.60
2022,04,17,10,26,7.70
2022,04,17,10,27,7.70
2022,04,17,10,28,7.80
2022,04,17,10,29,7.90
2022,04,17,10,30,8.00
2022,04,17,10,31,8.10
2022,04,17,10,32,8.20
2022,04,17,10,33,8.20
2022,04,17,10,34,8.20
2022,04,17,10,35,8.30
2022,04,17,10,36,8.30
2022,04,17,10,37,8.30
2022,04,17,10,38,8.20
2022,04,17,10,39,8.10
2022,04,17,10,40,7.90
2022,04,17,10,41,7.80
2022,04,17,10,42,7.70
2022,04,17,10,43,7.70
2022,04,17,10,44,7.70
2022,04,17,10,45,7.70
2022,04,17,10,46,7.70
2022,04,17,10,47,7.70
2022,04,17,10,48,7.90
2022,04,17,10,49,8.00
2022,04,17,10,50,8.20
2022,04,17,10,51,8.30
2022,04,17,10,52,8.40
2022,04,17,10,53,8.50
2022,04,17,10,54,8.50
2022,04,17,10,55,8.50
2022,04,17,10,56,8.50
2022,04,17,10,57,8.50
2022,04,17,10,58,8.40
2022,04,17,10,59,8.40
2022,04,17,11,00,8.30
2022,04,17,11,01,8.20
2022,04,17,11,02,8.20
2022,04,17,11,03,8.20
2022,04,17,11,04,8.30
2022,04,17,11,05,8.30
2022,04,17,11,06,8.20
2022,04,17,11,07,8.00
2022,04,17,11,08,7.80
2022,04,17,11,09,7.70
2022,04,17,11,10,7.70
2022,04,17,11,11,7.60
2022,04,17,11,12,7.60
2022,04,17,11,13,7.60
2022,04,17,11,14,7.50
2022,04,17,11,15,7.60
2022,04,17,11,16,7.60
2022,04,17,11,17,7.60
2022,04,17,11,18,7.60
2022,04,17,11,19,7.70
2022,04,17,11,20,7.80
2022,04,17,11,21,7.90
2022,04,17,11,22,7.90
2022,04,17,11,23,8.00
2022,04,17,11,24,8.00
2022,04,17,11,25,8.10
2022,04,17,11,26,8.10
2022,04,17,11,27,8.10
2022,04,17,11,28,8.10
2022,04,17,11,29,8.20
2022,04,17,11,30,8.30
2022,04,17,11,31,8.30
2022,04,17,11,32,8.40
2022,04,17,11,33,8.50
2022,04,17,11,34,8.60
2022,04,17,11,35,8.70
2022,04,17,11,36,8.80
2022,04,17,11,37,8.90
2022,04,17,11,38,8.80
2022,04,17,11,39,8.70
2022,04,17,11,40,8.70
2022,04,17,11,41,8.70
2022,04,17,11,42,8.80
2022,04,17,11,43,8.70
2022,04,17,11,44,8.70
2022,04,17,11,45,8.80
2022,04,17,11,46,8.90
2022,04,17,11,47,9.00
2022,04,17,11,48,8.90
2022,04,17,11,49,8.70
2022,04,17,11,50,8.70
2022,04,17,11,51,8.70
2022,04,17,11,52,8.80
2022,04,17,11,53,8.80
2022,04,17,11,54,8.80
2022,04,17,11,55,8.80
2022,04,17,11,56,8.90
2022,04,17,11,57,8.90
2022,04,17,11,58,9.00
2022,04,17,11,59,9.00
2022,04,17,12,00,8.90
2022,04,17,12,01,8.90
2022,04,17,12,02,8.80
2022,04,17,12,03,8.90
2022,04,17,12,04,8.90
2022,04,17,12,05,8.90
2022,04,17,12,06,8.80
2022,04,17,12,07,8.90
2022,04,17,12,08,9.00
2022,04,17,12,09,9.10
2022,04,17,12,10,9.20
2022,04,17,12,11,9.30
2022,04,17,12,12,9.40
2022,04,17,12,13,9.50
2022,04,17,12,14,9.50
2022,04,17,12,15,9.70
2022,04,17,12,16,9.80
2022,04,17,12,17,9.90
2022,04,17,12,18,10.00
2022,04,17,12,19,10.10
2022,04,17,12,20,10.10
2022,04,17,12,21,10.10
2022,04,17,12,22,9.90
2022,04,17,12,23,9.80
2022,04,17,12,24,9.80
2022,04,17,12,25,9.80
2022,04,17,12,26,9.70
2022,04,17,12,27,9.60
2022,04,17,12,28,9.70
2022,04,17,12,29,9.80
2022,04,17,12,30,9.80
2022,04,17,12,31,9.80
2022,04,17,12,32,9.90
2022,04,17,12,33,9.90
2022,04,17,12,34,10.00
2022,04,17,12,35,10.10
2022,04,17,12,36,10.10
2022,04,17,12,37,10.00
2022,04,17,12,38,9.70
2022,04,17,12,39,9.50
2022,04,17,12,40,9.30
2022,04,17,12,41,9.20
2022,04,17,12,42,9.30
2022,04,17,12,43,9.30
2022,04,17,12,44,9.30
2022,04,17,12,45,9.20
2022,04,17,12,46,9.10
2022,04,17,12,47,9.20
2022,04,17,12,48,9.30
2022,04,17,12,49,9.50
2022,04,17,12,50,9.70
2022,04,17,12,51,9.80
2022,04,17,12,52,9.80
2022,04,17,12,53,9.70
2022,04,17,12,54,9.50
2022,04,17,12,55,9.30
2022,04,17,12,56,9.20
2022,04,17,12,57,9.20
2022,04,17,12,58,9.30
2022,04,17,12,59,9.30
2022,04,17,13,00,9.20
2022,04,17,13,01,9.10
2022,04,17,13,02,8.90
2022,04,17,13,03,8.90
2022,04,17,13,04,8.90
2022,04,17,13,05,8.90
2022,04,17,13,06,9.00
2022,04,17,13,07,9.20
2022,04,17,13,08,9.20
2022,04,17,13,09,9.20
2022,04,17,13,10,9.20
2022,04,17,13,11,9.20
2022,04,17,13,12,9.30
2022,04,17,13,13,9.60
2022,04,17,13,14,9.80
2022,04,17,13,15,10.00
2022,04,17,13,16,9.90
2022,04,17,13,17,9.90
2022,04,17,13,18,9.80
2022,04,17,13,19,9.80
2022,04,17,13,20,9.80
2022,04,17,13,21,9.90
2022,04,17,13,22,9.80
2022,04,17,13,23,9.80
2022,04,17,13,24,9.70
2022,04,17,13,25,9.70
2022,04,17,13,26,9.70
2022,04,17,13,27,9.80
2022,04,17,13,28,9.90
2022,04,17,13,29,10.00
2022,04,17,13,30,10.10
2022,04,17,13,31,10.20
2022,04,17,13,32,10.40
2022,04,17,13,33,10.40
2022,04,17,13,34,10.40
2022,04,17,13,35,10.40
2022,04,17,13,36,10.60
2022,04,17,13,37,10.80
2022,04,17,13,38,10.80
2022,04,17,13,39,10.70
2022,04,17,13,40,10.60
2022,04,17,13,41,10.50
2022,04,17,13,42,10.50
2022,04,17,13,43,10.50
2022,04,17,13,44,10.30
2022,04,17,13,45,10.30
2022,04,17,13,46,10.30
2022,04,17,13,47,10.40
2022,04,17,13,48,10.40
2022,04,17,13,49,10.50
2022,04,17,13,50,10.40
2022,04,17,13,51,10.40
2022,04,17,13,52,10.50
2022,04,17,13,53,10.60
2022,04,17,13,54,10.70
2022,04,17,13,55,10.80
2022,04,17,13,56,10.90
2022,04,17,13,57,11.00
2022,04,17,13,58,11.10
2022,04,17,13,59,11.00
2022,04,17,14,00,10.70
2022,04,17,14,01,10.60
2022,04,17,14,02,10.50
2022,04,17,14,03,10.50
2022,04,17,14,04,10.60
2022,04,17,14,05,10.70
2022,04,17,14,06,11.00
2022,04,17,14,07,11.10
2022,04,17,14,08,11.20
2022,04,17,14,09,11.10
2022,04,17,14,10,11.10
2022,04,17,14,11,11.10
2022,04,17,14,12,11.00
2022,04,17,14,13,11.10
2022,04,17,14,14,11.10
2022,04,17,14,15,11.10
2022,04,17,14,16,11.10
2022,04,17,14,17,11.10
2022,04,17,14,18,11.10
2022,04,17,14,19,11.00
2022,04,17,14,20,10.90
2022,04,17,14,21,10.90
2022,04,17,14,22,11.00
2022,04,17,14,23,11.10
2022,04,17,14,24,11.00
2022,04,17,14,25,10.90
2022,04,17,14,26,11.00
2022,04,17,14,27,10.90
2022,04,17,14,28,10.80
2022,04,17,14,29,10.80
2022,04,17,14,30,10.90
2022,04,17,14,31,11.00
2022,04,17,14,32,11.10
2022,04,17,14,33,11.20
2022,04,17,14,34,11.30
2022,04,17,14,35,11.40
2022,04,17,14,36,11.60
2022,04,17,14,37,11.70
2022,04,17,14,38,11.80
2022,04,17,14,39,11.80
2022,04,17,14,40,11.70
2022,04,17,14,41,11.70
2022,04,17,14,42,11.70
2022,04,17,14,43,11.70
2022,04,17,14,44,11.70
2022,04,17,14,45,11.70
2022,04,17,14,46,11.50
2022,04,17,14,47,11.30
2022,04,17,14,48,11.20
2022,04,17,14,49,11.20
2022,04,17,14,50,11.20
2022,04,17,14,51,11.30
2022,04,17,14,52,11.30
2022,04,17,14,53,11.40
2022,04,17,14,54,11.60
2022,04,17,14,55,11.70
2022,04,17,14,56,11.70
2022,04,17,14,57,11.70
2022,04,17,14,58,11.70
2022,04,17,14,59,11.70
2022,04,17,15,00,11.60
2022,04,17,15,01,11.60
2022,04,17,15,02,11.50
2022,04,17,15,03,11.50
2022,04,17,15,04,11.60
2022,04,17,15,05,11.70
2022,04,17,15,06,11.70
2022,04,17,15,07,11.80
2022,04,17,15,08,11.80
2022,04,17,15,09,11.80
2022,04,17,15,10,11.90
2022,04,17,15,11,11.90
2022,04,17,15,12,12.10
2022,04,17,15,13,12.10
2022,04,17,15,14,12.00
2022,04,17,15,15,11.90
2022,04,17,15,16,11.80
2022,04,17,15,17,11.80
2022,04,17,15,18,11.90
2022,04,17,15,19,12.00
2022,04,17,15,20,12.00
2022,04,17,15,21,12.10
2022,04,17,15,22,12.10
2022,04,17,15,23,12.10
2022,04,17,15,24,12.20
2022,04,17,15,25,12.20
2022,04,17,15,26,12.20
2022,04,17,15,27,12.30
2022,04,17,15,28,12.40
2022,04,17,15,29,12.40
2022,04,17,15,30,12.50
2022,04,17,15,31,12.50
2022,04,17,15,32,12.40
2022,04,17,15,33,12.30
2022,04,17,15,34,12.30
2022,04,17,15,35,12.30
2022,04,17,15,36,12.30
2022,04,17,15,37,12.30
2022,04,17,15,38,12.30
2022,04,17,15,39,12.20
2022,04,17,15,40,12.10
2022,04,17,15,41,11.90
2022,04,17,15,42,11.80
2022,04,17,15,43,11.80
2022,04,17,15,44,11.80
2022,04,17,15,45,11.90
2022,04,17,15,46,11.90
2022,04,17,15,47,11.80
2022,04,17,15,48,11.70
2022,04,17,15,49,11.70
2022,04,17,15,50,11.60
2022,04,17,15,51,11.50
2022,04,17,15,52,11.60
2022,04,17,15,53,11.60
2022,04,17,15,54,11.60
2022,04,17,15,55,11.70
2022,04,17,15,56,11.80
2022,04,17,15,57,12.00
2022,04,17,15,58,12.00
2022,04,17,15,59,12.10
2022,04,17,16,00,12.00
2022,04,17,16,01,11.90
2022,04,17,16,02,11.90
2022,04,17,16,03,11.90
2022,04,17,16,04,12.00
2022,04,17,16,05,11.90
2022,04,17,16,06,11.90
2022,04,17,16,07,11.90
2022,04,17,16,08,11.90
2022,04,17,16,09,11.70
2022,04,17,16,10,11.70
2022,04,17,16,11,11.70
2022,04,17,16,12,11.70
2022,04,17,16,13,11.60
2022,04,17,16,14,11.60
2022,04,17,16,15,11.60
2022,04,17,16,16,11.60
2022,04,17,16,17,11.70
2022,04,17,16,18,11.70
2022,04,17,16,19,11.80
2022,04,17,16,20,11.80
2022,04,17,16,21,11.80
2022,04,17,16,22,11.90
2022,04,17,16,23,11.90
2022,04,17,16,24,11.90
2022,04,17,16,25,12.00
2022,04,17,16,26,12.00
2022,04,17,16,27,12.00
2022,04,17,16,28,12.00
2022,04,17,16,29,12.10
2022,04,17,16,30,12.10
2022,04,17,16,31,12.00
2022,04,17,16,32,12.00
2022,04,17,16,33,12.00
2022,04,17,16,34,12.00
2022,04,17,16,35,12.00
2022,04,17,16,36,12.10
2022,04,17,16,37,12.10
2022,04,17,16,38,12.10
2022,04,17,16,39,12.10
2022,04,17,16,40,12.10
2022,04,17,16,41,12.10
2022,04,17,16,42,12.20
2022,04,17,16,43,12.20
2022,04,17,16,44,12.10
2022,04,17,16,45,12.10
2022,04,17,16,46,12.10
2022,04,17,16,47,12.10
2022,04,17,16,48,12.10
2022,04,17,16,49,12.10
2022,04,17,16,50,12.10
2022,04,17,16,51,12.10
2022,04,17,16,52,12.10
2022,04,17,16,53,12.10
2022,04,17,16,54,12.10
2022,04,17,16,55,12.00
2022,04,17,16,56,12.00
2022,04,17,16,57,11.90
2022,04,17,16,58,11.80
2022,04,17,16,59,11.70
2022,04,17,17,00,11.60
2022,04,17,17,01,11.60
2022,04,17,17,02,11.60
2022,04,17,17,03,11.70
2022,04,17,17,04,11.70
2022,04,17,17,05,11.70
2022,04,17,17,06,11.70
2022,04,17,17,07,11.70
2022,04,17,17,08,11.70
2022,04,17,17,09,11.70
2022,04,17,17,10,11.60
2022,04,17,17,11,11.60
2022,04,17,17,12,11.60
2022,04,17,17,13,11.60
2022,04,17,17,14,11.70
2022,04,17,17,15,11.70
2022,04,17,17,16,11.80
2022,04,17,17,17,11.80
2022,04,17,17,18,11.80
2022,04,17,17,19,11.90
2022,04,17,17,20,11.80
2022,04,17,17,21,11.90
2022,04,17,17,22,11.90
2022,04,17,17,23,11.90
2022,04,17,17,24,11.90
2022,04,17,17,25,11.80
2022,04,17,17,26,11.60
2022,04,17,17,27,11.60
2022,04,17,17,28,11.60
2022,04,17,17,29,11.60
2022,04,17,17,30,11.60
2022,04,17,17,31,11.60
2022,04,17,17,32,11.70
2022,04,17,17,33,11.70
2022,04,17,17,34,11.60
2022,04,17,17,35,11.60
2022,04,17,17,36,11.50
2022,04,17,17,37,11.50
2022,04,17,17,38,11.40
2022,04,17,17,39,11.40
2022,04,17,17,40,11.40
2022,04,17,17,41,11.40
2022,04,17,17,42,11.40
2022,04,17,17,43,11.30
2022,04,17,17,44,11.30
2022,04,17,17,45,11.30
2022,04,17,17,46,11.30
2022,04,17,17,47,11.30
2022,04,17,17,48,11.30
2022,04,17,17,49,11.20
2022,04,17,17,50,11.20
2022,04,17,17,51,11.20
2022,04,17,17,52,11.20
2022,04,17,17,53,11.20
2022,04,17,17,54,11.20
2022,04,17,17,55,11.30
2022,04,17,17,56,11.30
2022,04,17,17,57,11.30
2022,04,17,17,58,11.30
2022,04,17,17,59,11.30
2022,04,17,18,00,11.30
2022,04,17,18,01,11.20
2022,04,17,18,02,11.20
2022,04,17,18,03,11.20
2022,04,17,18,04,11.20
2022,04,17,18,05,11.20
2022,04,17,18,06,11.20
2022,04,17,18,07,11.20
2022,04,17,18,08,11.10
2022,04,17,18,09,11.10
2022,04,17,18,10,11.10
2022,04,17,18,11,11.10
2022,04,17,18,12,11.00
2022,04,17,18,13,11.00
2022,04,17,18,14,11.00
2022,04,17,18,15,11.00
2022,04,17,18,16,11.00
2022,04,17,18,17,11.00
2022,04,17,18,18,11.00
2022,04,17,18,19,10.90
2022,04,17,18,20,10.90
2022,04,17,18,21,11.00
2022,04,17,18,22,10.90
2022,04,17,18,23,10.90
2022,04,17,18,24,10.90
2022,04,17,18,25,10.90
2022,04,17,18,26,10.90
2022,04,17,18,27,10.90
2022,04,17,18,28,10.90
2022,04,17,18,29,10.80
2022,04,17,18,30,10.80
2022,04,17,18,31,10.70
2022,04,17,18,32,10.70
2022,04,17,18,33,10.70
2022,04,17,18,34,10.70
2022,04,17,18,35,10.70
2022,04,17,18,36,10.60
2022,04,17,18,37,10.60
2022,04,17,18,38,10.60
2022,04,17,18,39,10.60
2022,04,17,18,40,10.60
2022,04,17,18,41,10.50
2022,04,17,18,42,10.50
2022,04,17,18,43,10.50
2022,04,17,18,44,10.50
2022,04,17,18,45,10.50
2022,04,17,18,46,10.50
2022,04,17,18,47,10.40
2022,04,17,18,48,10.40
2022,04,17,18,49,10.40
2022,04,17,18,50,10.40
2022,04,17,18,51,10.40
2022,04,17,18,52,10.40
2022,04,17,18,53,10.30
2022,04,17,18,54,10.30
2022,04,17,18,55,10.30
2022,04,17,18,56,10.30
2022,04,17,18,57,10.30
2022,04,17,18,58,10.30
2022,04,17,18,59,10.30
2022,04,17,19,00,10.30
2022,04,17,19,01,10.20
2022,04,17,19,02,10.20
2022,04,17,19,03,10.20
2022,04,17,19,04,10.20
2022,04,17,19,05,10.10
2022,04,17,19,06,10.10
2022,04,17,19,07,10.10
2022,04,17,19,08,10.10
2022,04,17,19,09,10.00
2022,04,17,19,10,10.00
2022,04,17,19,11,10.00
2022,04,17,19,12,9.90
2022,04,17,19,13,9.90
2022,04,17,19,14,9.90
2022,04,17,19,15,9.90
2022,04,17,19,16,9.90
2022,04,17,19,17,9.90
2022,04,17,19,18,9.90
2022,04,17,19,19,9.80
2022,04,17,19,20,9.80
2022,04,17,19,21,9.80
2022,04,17,19,22,9.80
2022,04,17,19,23,9.80
2022,04,17,19,24,9.80
2022,04,17,19,25,9.80
2022,04,17,19,26,9.80
2022,04,17,19,27,9.80
2022,04,17,19,28,9.80
2022,04,17,19,29,9.80
2022,04,17,19,30,9.80
2022,04,17,19,31,9.70
2022,04,17,19,32,9.70
2022,04,17,19,33,9.70
2022,04,17,19,34,9.70
2022,04,17,19,35,9.70
2022,04,17,19,36,9.70
2022,04,17,19,37,9.60
2022,04,17,19,38,9.60
2022,04,17,19,39,9.60
2022,04,17,19,40,9.60
2022,04,17,19,41,9.60
2022,04,17,19,42,9.60
2022,04,17,19,43,9.60
2022,04,17,19,44,9.60
2022,04,17,19,45,9.50
2022,04,17,19,46,9.50
2022,04,17,19,47,9.50
2022,04,17,19,48,9.50
2022,04,17,19,49,9.50
2022,04,17,19,50,9.50
2022,04,17,19,51,9.40
2022,04,17,19,52,9.40
2022,04,17,19,53,9.40
2022,04,17,19,54,9.40
2022,04,17,19,55,9.40
2022,04,17,19,56,9.40
2022,04,17,19,57,9.40
2022,04,17,19,58,9.40
2022,04,17,19,59,9.30
2022,04,17,20,00,9.30
2022,04,17,20,01,9.30
2022,04,17,20,02,9.30
2022,04,17,20,03,9.30
2022,04,17,20,04,9.30
2022,04,17,20,05,9.30
2022,04,17,20,06,9.30
2022,04,17,20,07,9.30
2022,04,17,20,08,9.30
2022,04,17,20,09,9.20
2022,04,17,20,10,9.20
2022,04,17,20,11,9.20
2022,04,17,20,12,9.20
2022,04,17,20,13,9.20
2022,04,17,20,14,9.20
2022,04,17,20,15,9.20
2022,04,17,20,16,9.10
2022,04,17,20,17,9.10
2022,04,17,20,18,9.10
2022,04,17,20,19,9.10
2022,04,17,20,20,9.10
2022,04,17,20,21,9.10
2022,04,17,20,22,9.00
2022,04,17,20,23,9.00
2022,04,17,20,24,9.00
2022,04,17,20,25,9.00
2022,04,17,20,26,8.90
2022,04,17,20,27,8.90
2022,04,17,20,28,8.90
2022,04,17,20,29,8.90
2022,04,17,20,30,8.90
2022,04,17,20,31,8.90
2022,04,17,20,32,8.90
2022,04,17,20,33,8.90
2022,04,17,20,34,8.90
2022,04,17,20,35,8.90
2022,04,17,20,36,8.90
2022,04,17,20,37,8.90
2022,04,17,20,38,8.80
2022,04,17,20,39,8.80
2022,04,17,20,40,8.80
2022,04,17,20,41,8.80
2022,04,17,20,42,8.80
2022,04,17,20,43,8.80
2022,04,17,20,44,8.80
2022,04,17,20,45,8.80
2022,04,17,20,46,8.80
2022,04,17,20,47,8.80
2022,04,17,20,48,8.80
2022,04,17,20,49,8.80
2022,04,17,20,50,8.80
2022,04,17,20,51,8.80
2022,04,17,20,52,8.80
2022,04,17,20,53,8.80
2022,04,17,20,54,8.80
2022,04,17,20,55,8.80
2022,04,17,20,56,8.80
2022,04,17,20,57,8.80
2022,04,17,20,58,8.80
2022,04,17,20,59,8.80
2022,04,17,21,00,8.80
2022,04,17,21,01,8.80
2022,04,17,21,02,8.80
2022,04,17,21,03,8.80
2022,04,17,21,04,8.80
2022,04,17,21,05,8.80
2022,04,17,21,06,8.80
2022,04,17,21,07,8.90
2022,04,17,21,08,8.80
2022,04,17,21,09,8.80
2022,04,17,21,10,8.80
2022,04,17,21,11,8.80
2022,04,17,21,12,8.70
2022,04,17,21,13,8.70
2022,04,17,21,14,8.70
2022,04,17,21,15,8.70
2022,04,17,21,16,8.80
2022,04,17,21,17,8.80
2022,04,17,21,18,8.80
2022,04,17,21,19,8.80
2022,04,17,21,20,8.80
2022,04,17,21,21,8.80
2022,04,17,21,22,8.80
2022,04,17,21,23,8.80
2022,04,17,21,24,8.80
2022,04,17,21,25,8.80
2022,04,17,21,26,8.80
2022,04,17,21,27,8.80
2022,04,17,21,28,8.80
2022,04,17,21,29,8.80
2022,04,17,21,30,8.70
2022,04,17,21,31,8.70
2022,04,17,21,32,8.70
2022,04,17,21,33,8.70
2022,04,17,21,34,8.70
2022,04,17,21,35,8.70
2022,04,17,21,36,8.60
2022,04,17,21,37,8.60
2022,04,17,21,38,8.60
2022,04,17,21,39,8.60
2022,04,17,21,40,8.70
2022,04,17,21,41,8.60
2022,04,17,21,42,8.70
2022,04,17,21,43,8.70
2022,04,17,21,44,8.70
2022,04,17,21,45,8.70
2022,04,17,21,46,8.70
2022,04,17,21,47,8.70
2022,04,17,21,48,8.60
2022,04,17,21,49,8.60
2022,04,17,21,50,8.60
2022,04,17,21,51,8.60
2022,04,17,21,52,8.60
2022,04,17,21,53,8.60
2022,04,17,21,54,8.60
2022,04,17,21,55,8.60
2022,04,17,21,56,8.50
2022,04,17,21,57,8.60
2022,04,17,21,58,8.60
2022,04,17,21,59,8.60
2022,04,17,22,00,8.60
2022,04,17,22,01,8.60
2022,04,17,22,02,8.60
2022,04,17,22,03,8.60
2022,04,17,22,04,8.60
2022,04,17,22,05,8.60
2022,04,17,22,06,8.60
2022,04,17,22,07,8.70
2022,04,17,22,08,8.70
2022,04,17,22,09,8.70
2022,04,17,22,10,8.70
2022,04,17,22,11,8.70
2022,04,17,22,12,8.70
2022,04,17,22,13,8.70
2022,04,17,22,14,8.80
2022,04,17,22,15,8.80
2022,04,17,22,16,8.80
2022,04,17,22,17,8.80
2022,04,17,22,18,8.80
2022,04,17,22,19,8.80
2022,04,17,22,20,8.80